Meath Environmental Platform

Observations for Trim Market St

Time AQI Temp °C Hum % Pres Pa CO μg/m³ H₂S μg/m³ NO μg/m³ NO₂ μg/m³ O₃ μg/m³ SO₂ μg/m³ PM1 μg/m³ PM2.5 μg/m³ PM10 μg/m³
Monday 17 August 2026
09:37 2 20.8 71 48,554 0.2 0 1.73 3.49 38.92 0 0 2.51 5.05
09:36 2 20.7 71 47,354 0.49 0 1.71 3.56 36.53 0 1.43 2.99 5.06
09:35 2 20.7 72 46,051 0.09 0 1.65 3.43 38.1 0 2.14 3.95 6.91
09:34 2 20.7 72 44,961 0.09 0 1.66 3.34 33.77 0 0.71 2.49 5.07
09:33 2 20.6 72 43,733 0.17 0 1.65 3.41 34.52 0 0.71 2.96 5.07
09:32 2 20.5 72 42,494 0.2 0 1.61 3.23 40.28 0 0.71 2.96 5.07
09:31 2 20.5 72 41,797 0.26 0 1.6 3.3 41.32 0 1.43 2.47 5.08
09:28 2 20.4 72 39,945 0.16 0 1.56 3.2 39.05 0 0.71 1.97 3.86
09:24 2 20.2 73 38,363 0.27 0 1.71 3.18 39.14 0 1.43 2.44 4.48
09:22 2 20.2 73 36,773 0.12 0 1.7 3.29 39.73 0 0.71 2.43 4.49
09:21 2 20.2 73 35,983 0.15 0 1.7 3.15 24.33 0 0.71 1.94 3.88
09:12 2 20.1 74 31,988 0.17 0 1.79 2.93 25.51 0 1.43 2.88 5.72
09:08 2 20.1 74 29,708 0.26 0 1.83 2.85 30.28 0 1.43 2.86 5.12
09:07 2 20 74 28,426 0.2 0 1.84 2.83 29.79 0 1.43 2.37 5.13
09:06 2 20 74 27,140 0.2 0 1.77 2.77 24.4 0 0.71 2.37 4.53
09:05 2 20 74 25,731 0.18 0 1.74 2.44 42.37 0 0 1.88 4.53
09:04 2 20 75 23,945 0.19 0 1.77 2.24 32.06 0 0 1.39 3.34
09:03 2 20 75 22,108 0.15 0 1.79 2.14 38 0 0 1.39 3.35
09:02 2 19.9 75 20,467 0.23 0 1.81 2.67 35.7 0 0.71 2.34 4.55
09:01 2 19.9 75 18,959 0.44 0 2.53 2.81 29.73 0 0.71 2.34 4.55